STARLINK-32037, 60283

Orbit data source: Space-Track

STARLINK-32037, 60283 is a payload satellite owned by SpaceX/Seattle (US) in LEO that was launched on Sun, 28 Jul 2024 UTC via an FALCON 9 launch vehicle from the Air Force Eastern Test Range (AFETR). Payload-class satellites include a variety of spacecraft equipped with specific instruments for various scientific and technological missions. These include communications satellites like Starlink; space stations such as the ISS; scientific satellites like the Hubble; Earth observation satellites from companies like Planet Labs, Umbra, and HawkEye 360; GPS; miniature CubeSats for education and research; and military/defense satellites.

Loading next visibility...
Identifier
60283, 2024-132F
Orbit
LEO
Country
Flag of USUS
Related business
Manufacturer
SpaceX/Seattle
Mission
Operational Commercial Communications
Bus & Motor
STARLINK V2M, Unknown motor
Mass
730 kg wet, ~700 kg dry
Launch date (UTC)
2024-07-28 (1 year ago)
Launch vehicle
FALCON 9
Launch site
Air Force Eastern Test Range (AFETR)
Object type
Payload
Rocket body
Debris
Shape & HBR
Box + 2 Pan, 17.7 m
Radar Cross Section
33.884 m², Large (>1 m²)

Expand to show TLE details & history
Last TLE update: 1 day ago

TLE from 1 day ago
0 STARLINK-32037
1 60283U 24132F   25348.54922102  .00000960  00000-0  44538-4 0  9991
2 60283  53.1600  87.9979 0001356  85.0421 275.0735 15.30185381 78526
Epoch: 2025-12-14T13:10Z
TLE epoch observation values (Epoch: 2025-12-14T13:10:52.696Z)
Latitude
0.00003°
Longitude
166.81781°
Altitude
476.076 km
Speed
7.629 km/s
True Right ascension
05h 51m 59s
True Declination
0° 00' 00"
Sunlit
Object was in full shadow at epoch
Visualization orbit readout
Latitude
Unknown
Longitude
Unknown
Altitude
Unknown
Speed
Unknown
Apparent Right ascension
Unknown
Apparent Declination
Unknown
Sunlit
N/A
Visualization observer readout
Local Sidereal Time
13:23:51
Azimuth
Unknown
Elevation
Unknown
Doppler factor
Unknown
Orbital elements
Apogee altitude
476.445 km
Perigee altitude
474.586 km
Semi-major axis
6,853.652 km
Eccentricity
0.00014
Inclination
53.16°
RAAN
87.9979°
Arg. of periapsis
85.0421°
True anomaly
275.05802°
Mean anomaly
275.0735°
Eccentric anomaly
275.06576°
Mean motion
3.82525 °/min
Orbital period
94.11 mins
BSTAR
0.000044538
Loading maneuver chart data...
Computing Atmospheric mass density...
Loading historical data...
Loading historical data...
Loading historical data...
Loading historical data...
Loading historical data...
Loading historical data...
Loading historical data...

Documentation

Showing up to 5 results
|